This is the latest recevied weather packets stored in our database for station/object N1SU-13. If no packets are shown the sender has not sent any weather packets the latest 10 day(s).
| Time | Temp. | Humidity | Pressure | Rain* | Wind** | Luminosity | Snow |
|---|---|---|---|---|---|---|---|
| 1788071523 | 12.78° C | 81% | 1018.1 hPa | 0 mm | - | - | - |
| 1788070936 | 12.78° C | 81% | 1018.2 hPa | 0 mm | - | - | - |
| 1788070317 | 12.78° C | 80% | 1018.2 hPa | 0 mm | - | - | - |
| 1788069685 | 13.33° C | 79% | 1018.1 hPa | 0 mm | - | - | - |
| 1788069010 | 13.33° C | 79% | 1018.2 hPa | 0 mm | - | - | - |
| 1788068322 | 13.33° C | 79% | 1018.2 hPa | 0 mm | - | - | - |
| 1788067759 | 13.33° C | 78% | 1018.2 hPa | 0 mm | - | - | - |
| 1788067077 | 13.89° C | 75% | 1018.1 hPa | 0 mm | - | - | - |
| 1788066417 | 13.89° C | 74% | 1018.1 hPa | 0 mm | - | - | - |
| 1788065850 | 13.89° C | 73% | 1018 hPa | 0 mm | - | - | - |
| 1788065184 | 14.44° C | 73% | 1018 hPa | 0 mm | - | - | - |
| 1788064531 | 14.44° C | 74% | 1017.9 hPa | 0 mm | - | - | - |
| 1788063925 | 14.44° C | 75% | 1017.9 hPa | 0 mm | - | - | - |
| 1788063335 | 14.44° C | 76% | 1017.9 hPa | 0 mm | - | - | - |
| 1788062136 | 14.44° C | 81% | 1017.5 hPa | 0 mm | - | - | - |
| 1788061571 | 15° C | 79% | 1017.4 hPa | 0 mm | - | - | - |
| 1788061007 | 15° C | 78% | 1017.2 hPa | 0 mm | - | - | - |
| 1788060399 | 15° C | 75% | 1017 hPa | 0 mm | - | - | - |
| 1788059725 | 15.56° C | 78% | 1016.8 hPa | 0 mm | - | - | - |
| 1788059126 | 15.56° C | 77% | 1016.8 hPa | 0 mm | - | - | - |
| 1788058526 | 15.56° C | 80% | 1016.8 hPa | 0 mm | - | - | - |
| 1788057836 | 16.11° C | 82% | 1016.5 hPa | 0 mm | - | - | - |
| 1788057158 | 16.11° C | 81% | 1016.5 hPa | 0 mm | - | - | - |
| 1788056588 | 16.11° C | 81% | 1016.6 hPa | 0 mm | - | - | - |
| 1788055956 | 16.67° C | 79% | 1016.5 hPa | 0 mm | - | - | - |
* Rain latest hour (hover to see other rain measurements)
** Current wind speed in m/s (hover to see current wind gust speed)